Location: Fluertsh�userhof
(48.7537°N, 10.3850°E)
Time: 08:32:25
(UTC+00:00)

OBJECT-B - Pass Details

Date: 18 September 2020
Orbit: 421 x 433 km, 97.0° (Epoch: 09 October)

Event Time Altitude Azimuth Distance (km) Brightness Sun altitude
Exits shadow 19:01:25 42° 97° (E) 614 1.1 -16.4°
Maximum altitude 19:01:49 45° 73° (ENE) 588 1.1 -16.5°
Drops below altitude 10° 19:04:57 10° 359° (N) 1,523 3.9 -17.0°
Sets 19:07:01 0° 353° (N) 2,396 5.0 -17.3°
